Change the Weather History Date:

Sunday, March 24, 2013

  Actual Average (KSPI) Record (KSPI)
Temperature  
Mean Temperature 32 °F 45 °F  
Max Temperature 37 °F 56 °F 84 °F (1929)
Min Temperature 28 °F 35 °F 3 °F (1974)
Degree Days  
Heating Degree Days 32 20  
Month to date heating degree days 582  
Since 1 July heating degree days 4853  
Cooling Degree Days 0 0  
Month to date cooling degree days 0  
Year to date cooling degree days 0  
Moisture  
Dew Point 28 °F    
Average Humidity 93    
Maximum Humidity 100    
Minimum Humidity 60    
Precipitation  
Precipitation 0.00 in 0.09 in 2.15 in (1913)
Month to date precipitation 1.99  
Year to date precipitation 5.62  
Snow  
Snow 0.00 in 0.00 in 17.00 in (2013)
Month to date snowfall 2.2  
Since 1 July snowfall 20.3  
Snow Depth -    
Sea Level Pressure  
Sea Level Pressure 29.68 in    
Wind  
Wind Speed 17 mph (North)    
Max Wind Speed 26 mph    
Max Gust Speed 36 mph    
Visibility 3 miles    
Events Snow , Thunderstorm    
T = Trace of Precipitation, MM = Missing Value Source: NWS Daily Summary

Daily Weather History Graph

Daily Weather History Graph

Search for Another Location

Airport or City:

Trip Planner

Search our weather history database for the weather conditions in past years. The results will help you decide how hot, cold, wet, or windy it might be!

Date:

Astronomy

Mar. 24, 2013 Rise Set
Actual Time 6:53 AM CDT 7:13 PM CDT
Civil Twilight 6:27 AM CDT 7:40 PM CDT
Nautical Twilight 5:55 AM CDT 8:12 PM CDT
Astronomical Twilight 5:23 AM CDT 8:44 PM CDT
Moon 4:42 PM CDT (3/24) 5:03 AM CDT (3/24)
Length of Visible Light 13h 13m
Length of Day
12h 19m
Waxing Gibbous, 92% of the Moon is Illuminated
Mar 24
Waxing Gibbous
Mar 27
Full
Apr 2
Last Quarter
Apr 10
New
Apr 18
First Quarter

Hourly Weather History & Observations

Time (CDT) Temp. Windchill Dew Point Humidity Pressure Visibility Wind Dir Wind Speed Gust Speed Precip Events Conditions
12:15 AM 37.4 °F 27.5 °F 24.8 °F 60% 29.86 in 10.0 mi NE 18.4 mph 23.0 mph N/A   Mostly Cloudy
12:35 AM 37.4 °F 27.5 °F 24.8 °F 60% 29.87 in 10.0 mi NE 18.4 mph 23.0 mph N/A   Overcast
12:55 AM 35.6 °F 27.5 °F 24.8 °F 65% 29.88 in 10.0 mi NNE 11.5 mph 20.7 mph N/A   Mostly Cloudy
1:15 AM 35.6 °F 27.1 °F 24.8 °F 65% 29.88 in 10.0 mi NNE 12.7 mph - N/A   Scattered Clouds
1:35 AM 33.8 °F 25.3 °F 24.8 °F 70% 29.90 in 10.0 mi NNE 11.5 mph - N/A Snow Light Snow
1:55 AM 33.8 °F 24.3 °F 24.8 °F 70% 29.90 in 10.0 mi North 13.8 mph - N/A   Mostly Cloudy
2:15 AM 32.0 °F 23.0 °F 26.6 °F 80% 29.91 in 10.0 mi North 11.5 mph - N/A   Overcast
2:35 AM 30.2 °F 18.9 °F 26.6 °F 86% 29.91 in 7.0 mi North 16.1 mph - N/A Snow Light Snow
2:55 AM 30.2 °F 18.9 °F 26.6 °F 86% 29.89 in 1.5 mi North 16.1 mph - N/A Snow Light Snow
3:15 AM 28.4 °F 15.8 °F 28.4 °F 100% 29.88 in 1.2 mi NNE 18.4 mph - N/A Snow Light Snow
3:35 AM 28.4 °F 16.6 °F 28.4 °F 100% 29.85 in 1.0 mi NNE 16.1 mph - N/A Snow Snow
3:55 AM 28.4 °F 16.2 °F 28.4 °F 100% 29.83 in 2.5 mi NNE 17.3 mph 25.3 mph N/A Snow Light Snow
4:15 AM 28.4 °F 15.4 °F 28.4 °F 100% 29.78 in 2.0 mi NE 19.6 mph - N/A Snow Light Snow
4:35 AM 28.4 °F 15.8 °F 28.4 °F 100% 29.80 in 1.8 mi NE 18.4 mph - N/A Snow Light Snow
4:55 AM 28.4 °F 15.8 °F 28.4 °F 100% 29.79 in 1.2 mi ENE 18.4 mph 23.0 mph N/A Snow Light Snow
5:15 AM 28.4 °F 17.5 °F 28.4 °F 100% 29.78 in 3.0 mi NE 13.8 mph 25.3 mph N/A Snow Light Snow
5:35 AM 28.4 °F 16.6 °F 28.4 °F 100% 29.78 in 7.0 mi NE 16.1 mph 20.7 mph N/A Snow Light Snow
5:55 AM 30.2 °F 18.9 °F 28.4 °F 93% 29.76 in 7.0 mi NE 16.1 mph 19.6 mph N/A   Mostly Cloudy
6:15 AM 30.2 °F 19.8 °F 28.4 °F 93% 29.75 in 7.0 mi NE 13.8 mph - N/A   Mostly Cloudy
6:35 AM 30.2 °F 18.9 °F 28.4 °F 93% 29.74 in 7.0 mi NE 16.1 mph - N/A   Mostly Cloudy
6:55 AM 30.2 °F 20.8 °F 28.4 °F 93% 29.74 in 10.0 mi NE 11.5 mph 23.0 mph N/A   Mostly Cloudy
7:15 AM 30.2 °F 18.9 °F 28.4 °F 93% 29.73 in 7.0 mi NE 16.1 mph 21.9 mph N/A   Overcast
7:35 AM 30.2 °F 19.8 °F 28.4 °F 93% 29.72 in 7.0 mi NE 13.8 mph - N/A   Mostly Cloudy
7:55 AM 30.2 °F 19.3 °F 28.4 °F 93% 29.70 in 7.0 mi NE 15.0 mph 20.7 mph N/A   Mostly Cloudy
8:15 AM 30.2 °F 19.3 °F 28.4 °F 93% 29.69 in 7.0 mi ENE 15.0 mph - N/A   Scattered Clouds
8:35 AM 30.2 °F 19.3 °F 28.4 °F 93% 29.66 in 7.0 mi NE 15.0 mph - N/A   Scattered Clouds
8:55 AM 30.2 °F 18.5 °F 28.4 °F 93% 29.64 in 5.0 mi ENE 17.3 mph - N/A   Scattered Clouds
9:15 AM 30.2 °F 19.3 °F 28.4 °F 93% 29.63 in 3.0 mi ENE 15.0 mph 24.2 mph N/A   Scattered Clouds
9:35 AM 30.2 °F 19.8 °F 28.4 °F 93% 29.63 in 5.0 mi NE 13.8 mph 18.4 mph N/A   Scattered Clouds
9:55 AM 30.2 °F 18.1 °F 28.4 °F 93% 29.61 in 5.0 mi NE 18.4 mph 24.2 mph N/A   Mostly Cloudy
10:15 AM 30.2 °F 19.8 °F 30.2 °F 100% 29.61 in 5.0 mi ENE 13.8 mph 18.4 mph N/A   Mostly Cloudy
10:35 AM 32.0 °F 21.2 °F 30.2 °F 93% 29.58 in 4.0 mi NE 16.1 mph 23.0 mph N/A Snow Light Snow
10:55 AM 32.0 °F 19.8 °F 30.2 °F 93% 29.56 in 1.5 mi NNE 20.7 mph 28.8 mph N/A Snow Light Snow
11:15 AM 30.2 °F 19.3 °F 30.2 °F 100% 29.59 in 1.2 mi North 15.0 mph - N/A Snow Light Snow
11:35 AM 30.2 °F 21.3 °F 30.2 °F 100% 29.64 in 0.2 mi NW 10.4 mph - N/A Snow Snow
11:55 AM 30.2 °F 18.9 °F 30.2 °F 100% 29.62 in 0.2 mi NNW 16.1 mph - N/A Snow Snow
12:15 PM 30.2 °F 15.9 °F 30.2 °F 100% 29.57 in 0.2 mi North 26.5 mph 35.7 mph N/A Snow , Thunderstorm Snow
12:35 PM 30.2 °F 18.9 °F 30.2 °F 100% 29.62 in 0.5 mi North 16.1 mph - N/A Snow Light Snow
12:55 PM 30.2 °F 16.8 °F 30.2 °F 100% 29.58 in 0.2 mi North 23.0 mph 28.8 mph N/A Snow Snow
1:15 PM 30.2 °F 17.1 °F 30.2 °F 100% 29.55 in 0.2 mi North 21.9 mph 28.8 mph N/A Snow Heavy Snow
1:35 PM 30.2 °F 17.1 °F 28.4 °F 93% 29.55 in 0.2 mi North 21.9 mph 26.5 mph N/A Snow Heavy Snow
1:55 PM 30.2 °F 16.8 °F 28.4 °F 93% 29.54 in 0.2 mi North 23.0 mph 33.4 mph N/A Snow Heavy Snow
2:15 PM 30.2 °F 17.1 °F 28.4 °F 93% 29.54 in 0.2 mi North 21.9 mph 31.1 mph N/A Snow Heavy Snow
2:35 PM 28.4 °F 14.4 °F 28.4 °F 100% 29.52 in 0.5 mi North 23.0 mph 29.9 mph N/A Snow Light Snow
2:55 PM 28.4 °F 14.1 °F 28.4 °F 100% 29.53 in 0.2 mi North 24.2 mph - N/A Snow Snow
3:15 PM 30.2 °F 17.4 °F 28.4 °F 93% 29.53 in 0.5 mi North 20.7 mph 26.5 mph N/A Snow Snow
3:35 PM 30.2 °F 16.8 °F 28.4 °F 93% 29.52 in 0.2 mi North 23.0 mph 27.6 mph N/A Snow Heavy Snow
3:55 PM 30.2 °F 17.1 °F 28.4 °F 93% 29.52 in 0.2 mi North 21.9 mph 27.6 mph N/A Snow Heavy Snow
4:15 PM 28.4 °F 15.1 °F 28.4 °F 100% 29.53 in 0.2 mi North 20.7 mph 27.6 mph N/A Snow Snow
4:35 PM 28.4 °F 15.1 °F 28.4 °F 100% 29.53 in 0.2 mi North 20.7 mph 25.3 mph N/A Snow Heavy Snow
4:55 PM 28.4 °F 15.8 °F 28.4 °F 100% 29.54 in 0.2 mi North 18.4 mph 25.3 mph N/A Snow Heavy Snow
5:15 PM 30.2 °F 17.8 °F 28.4 °F 93% 29.55 in 0.2 mi North 19.6 mph - N/A Snow Snow
5:35 PM 30.2 °F 17.8 °F 28.4 °F 93% 29.56 in 0.5 mi North 19.6 mph - N/A Snow Snow
5:55 PM 30.2 °F 17.8 °F 28.4 °F 93% 29.57 in 0.5 mi North 19.6 mph - N/A Snow Light Snow
6:15 PM 30.2 °F 18.9 °F 28.4 °F 93% 29.59 in 0.5 mi North 16.1 mph - N/A Snow Snow
6:35 PM 30.2 °F 18.1 °F 28.4 °F 93% 29.60 in 0.5 mi NNW 18.4 mph - N/A Snow Snow
6:55 PM 30.2 °F 18.1 °F 28.4 °F 93% 29.61 in 0.5 mi NNW 18.4 mph 23.0 mph N/A Snow Snow
7:15 PM 30.2 °F 17.8 °F 28.4 °F 93% 29.62 in 0.5 mi NNW 19.6 mph 26.5 mph N/A Snow Snow
7:35 PM 30.2 °F 17.4 °F 28.4 °F 93% 29.63 in 1.0 mi NNW 20.7 mph 25.3 mph N/A Snow Light Snow
7:55 PM 28.4 °F 15.1 °F 28.4 °F 100% 29.65 in 1.0 mi NNW 20.7 mph 25.3 mph N/A Snow Light Snow
8:15 PM 28.4 °F 16.2 °F 28.4 °F 100% 29.65 in 1.0 mi NNW 17.3 mph - N/A Snow Snow
8:35 PM 28.4 °F 15.8 °F 28.4 °F 100% 29.66 in 1.5 mi NNW 18.4 mph - N/A Snow Light Snow
8:55 PM 28.4 °F 15.4 °F 28.4 °F 100% 29.66 in 1.8 mi NNW 19.6 mph - N/A Snow Light Snow
9:15 PM 30.2 °F 17.1 °F 28.4 °F 93% 29.67 in 2.5 mi NNW 21.9 mph 25.3 mph N/A Snow Light Snow
9:35 PM 30.2 °F 17.1 °F 28.4 °F 93% 29.68 in 3.0 mi NNW 21.9 mph - N/A Snow Light Snow
9:55 PM 30.2 °F 17.8 °F 28.4 °F 93% 29.69 in 2.5 mi NNW 19.6 mph - N/A Snow Light Snow
10:15 PM 28.4 °F 15.8 °F 28.4 °F 100% 29.69 in 1.8 mi NNW 18.4 mph - N/A Snow Light Snow
10:35 PM 30.2 °F 18.1 °F 28.4 °F 93% 29.70 in 2.0 mi NNW 18.4 mph - N/A Snow Light Snow
10:55 PM 30.2 °F 18.5 °F 28.4 °F 93% 29.70 in 1.8 mi NW 17.3 mph 23.0 mph N/A Snow Light Snow
11:15 PM 30.2 °F 18.9 °F 28.4 °F 93% 29.70 in 1.8 mi NW 16.1 mph 20.7 mph N/A Snow Light Snow
11:35 PM 28.4 °F 17.0 °F 28.4 °F 100% 29.71 in 1.5 mi NW 15.0 mph - N/A Snow Light Snow
11:55 PM 28.4 °F 17.0 °F 28.4 °F 100% 29.71 in 1.5 mi NW 15.0 mph 19.6 mph N/A Snow Light Snow